Location: Makanda
(37.6176°N, 89.2090°W)
Time: 03:14:24
(UTC+00:00)

Cosmos 773 Rocket - Pass Details

Date: 23 September 2019
Orbit: 746 x 776 km, 74.1° (Epoch: 18 October)

Event Time Altitude Azimuth Distance (km) Brightness Sun altitude
Exits shadow 09:45:47 46° 313° (NW) 998 4.3 -24.0°
Drops below altitude 10° 09:50:12 10° 7° (N) 2,273 6.7 -23.2°
Sets 09:52:38 0° 13° (NNE) 3,198 7.6 -22.7°
